Location: Melbourne
(37.8170°S, 144.9670°E)
Time: 11:22:23
(UTC+10:00)

Aureole 2 Rocket - Visible Passes

Search period start: 25 May 2016 00:00
Search period end: 04 June 2016 00:00
Orbit: 335 x 617 km, 73.9° (Epoch: 23 May)

Date Brightness Start Highest point End Pass type
(mag) Time Alt. Az. Time Alt. Az. Time Alt. Az.
25 May 3.5 18:38:29 10° S 18:42:41 39° ESE 18:43:52 33° ENE visible
25 May 5.7 20:15:11 10° SW 20:18:12 18° W 20:18:16 18° W visible
26 May 3.9 18:10:52 10° S 18:14:42 27° ESE 18:18:33 10° ENE visible
26 May 5.1 19:46:42 10° SW 19:50:26 26° W 19:54:09 10° NNW visible
27 May 4.4 17:43:23 10° SSE 17:46:39 19° ESE 17:49:55 10° ENE visible
27 May 4.5 19:18:26 10° SW 19:22:37 38° WNW 19:26:46 10° N visible
28 May 3.7 18:50:17 10° SSW 18:54:44 58° WNW 18:59:07 10° N visible
29 May 3.1 18:22:15 10° SSW 18:26:48 87° WNW 18:31:15 10° NNE visible
30 May 3.1 17:54:17 10° SSW 17:58:47 62° ESE 18:03:11 10° NNE visible
30 May 6.5 19:32:42 10° WSW 19:34:00 11° W 19:35:16 10° WNW visible
31 May 6.1 19:03:17 10° WSW 19:06:09 17° W 19:08:59 10° NW visible
01 Jun 5.6 18:34:35 10° SW 18:38:15 25° W 18:41:50 10° NNW visible
02 Jun 5.3 06:40:19 10° NNE 06:43:10 24° E 06:46:15 10° SE visible
02 Jun 4.8 18:06:08 10° SW 18:10:17 36° WNW 18:14:19 10° NNW visible
03 Jun 5.9 06:13:03 10° NE 06:15:13 16° E 06:17:31 10° ESE visible
03 Jun 4.0 17:37:49 10° SSW 17:42:15 55° WNW 17:46:32 10° N visible
